Location: Góry Miechowskie
(50.3599°N, 20.1803°E)
Time: 22:00:46
(UTC+00:00)

Tiros 1 despin weight - Pass Details

Date: 19 September 2024
Orbit: 572 x 614 km, 48.2° (Epoch: 12 October)

Event Time Altitude Azimuth Distance (km) Brightness Sun altitude
Rises 04:26:15 0° 276° (W) 2,882 - -0.1°
Exits shadow 04:26:16 - 276° (W) 2,874 ? -0.1°
Reaches altitude 10° 04:28:36 10° 272° (W) 1,978 ? 0.3°
Maximum altitude 04:33:01 52° 196° (SSW) 769 ? 1.0°
Drops below altitude 10° 04:37:26 10° 121° (ESE) 1,974 ? 1.7°
Sets 04:39:46 0° 116° (ESE) 2,874 ? 2.1°
